Weather History for VIAR - December, 2012

Change the Weather History Date:

Sunday, December 23, 2012

  Actual Average Record
Temperature  
Mean Temperature 46 °F -  
Max Temperature 57 °F 63 °F 71 °F (2007)
Min Temperature 36 °F 40 °F 35 °F (2011)
Degree Days  
Heating Degree Days 18    
Moisture  
Dew Point 48 °F    
Average Humidity 100    
Maximum Humidity 100    
Minimum Humidity 98    
Precipitation  
Precipitation 0.00 in - - ()
Sea Level Pressure  
Sea Level Pressure 30.06 in    
Wind  
Wind Speed 2 mph ()    
Max Wind Speed 8 mph    
Max Gust Speed -    
Visibility 0.3 miles    
Events Fog    
Averages and records for this station are not official NWS values.
T = Trace of Precipitation, MM = Missing Value Source: Averaged Metar Reports

Daily Weather History Graph

Daily Weather History Graph

Search for Another Location

Airport or City:

Trip Planner

Search our weather history database for the weather conditions in past years. The results will help you decide how hot, cold, wet, or windy it might be!

Date:

Astronomy

Dec. 23, 2012 Rise Set
Actual Time 7:27 AM IST 5:32 PM IST
Civil Twilight 7:00 AM IST 5:59 PM IST
Nautical Twilight 6:30 AM IST 6:29 PM IST
Astronomical Twilight 6:00 AM IST 6:59 PM IST
Moon 1:59 PM IST (12/23) 2:53 AM IST (12/23)
Length of Visible Light 10h 58m
Length of Day
10h 04m
Waxing Gibbous, 78% of the Moon is Illuminated
Dec 23
Waxing Gibbous
Dec 28
Full
Jan 5
Last Quarter
Jan 12
New
Jan 19
First Quarter

Hourly Weather History & Observations

Time (IST) Temp. Dew Point Humidity Pressure Visibility Wind Dir Wind Speed Gust Speed Precip Events Conditions
12:00 AM 46.4 °F 46.4 °F 100% 30.04 in 0.7 mi Calm Calm - N/A   Mist
1:30 AM 44.6 °F 44.6 °F 100% 30.01 in 0.2 mi Calm Calm - N/A   Mist
2:00 AM 46.4 °F 46.4 °F 100% 30.01 in 0.1 mi Calm Calm - N/A Fog Fog
2:30 AM 42.8 °F 42.8 °F 100% 30.01 in 0.2 mi Calm Calm - N/A Fog Fog
3:00 AM 44.6 °F 44.6 °F 100% 30.01 in 0.3 mi Calm Calm - N/A Fog Fog
3:30 AM 44.6 °F 44.6 °F 100% 29.98 in 0.3 mi Calm Calm - N/A Fog Fog
4:00 AM 42.8 °F 42.8 °F 100% 29.98 in 0.3 mi Calm Calm - N/A Fog Fog
5:00 AM 44.6 °F 44.6 °F 100% 29.98 in 0.3 mi Calm Calm - N/A Fog Fog
5:30 AM 42 °F 42 °F 99% 30.02 in 1 mi Calm Calm - -   Mist
5:30 AM 42.8 °F 42.8 °F 100% 29.98 in 0.6 mi Calm Calm - N/A   Mist
6:00 AM 41.0 °F 41.0 °F 100% 30.01 in 0.2 mi Calm Calm - N/A Fog Fog
7:00 AM 37.4 °F 37.4 °F 100% 30.04 in 0.0 mi Calm Calm - N/A Fog Fog
7:30 AM 37.4 °F 37.4 °F 100% 30.04 in - Calm Calm - N/A Fog Fog
8:30 AM 40 °F 40 °F 99% 30.09 in 0 mi Calm Calm - - Fog Partial Fog
9:00 AM 46.4 °F 46.4 °F 100% 30.06 in 0.2 mi Calm Calm - N/A Fog Fog
9:30 AM 48.2 °F 48.2 °F 100% 30.09 in 0.2 mi Calm Calm - N/A Fog Fog
10:30 AM 57.2 °F 57.2 °F 100% 30.09 in 0.3 mi Calm Calm - N/A Fog Fog
11:00 AM 55.4 °F 55.4 °F 100% 30.12 in 0.4 mi East 5.8 mph - N/A Fog Fog
11:30 AM 53 °F 53 °F 98% 30.13 in 0 mi East 6.9 mph - - Fog Partial Fog
11:30 AM 51.8 °F 51.8 °F 100% 30.12 in 0.4 mi East 6.9 mph - N/A Fog Fog
12:30 PM 51.8 °F 51.8 °F 100% 30.09 in 0.5 mi East 8.1 mph - N/A Fog Fog
1:00 PM 53.6 °F 53.6 °F 100% 30.09 in 0.5 mi ESE 6.9 mph - N/A Fog Fog
1:30 PM 51.8 °F 51.8 °F 100% 30.09 in 0.5 mi ESE 6.9 mph - N/A Fog Fog
2:00 PM 51.8 °F 51.8 °F 100% 30.06 in 0.4 mi ESE 8.1 mph - N/A Fog Fog
2:30 PM 51 °F 51 °F 99% 30.08 in 0 mi SE 5.8 mph - - Fog Heavy Fog
2:30 PM 50.0 °F 50.0 °F 100% 30.06 in 0.4 mi SE 5.8 mph - N/A Fog Fog
3:00 PM 50.0 °F 50.0 °F 100% 30.06 in 0.4 mi SE 5.8 mph - N/A Fog Fog
3:30 PM 51.8 °F 51.8 °F 100% 30.06 in 0.4 mi ESE 4.6 mph - N/A Fog Fog
4:00 PM 50.0 °F 50.0 °F 100% 30.04 in 0.4 mi SE 4.6 mph - N/A Fog Fog
4:30 PM 50.0 °F 50.0 °F 100% 30.04 in 0.4 mi SE 4.6 mph - N/A Fog Fog
5:00 PM 50.0 °F 50.0 °F 100% 30.04 in 0.3 mi SE 3.5 mph - N/A Fog Fog
6:00 PM 50.0 °F 50.0 °F 100% 30.04 in 0.1 mi Variable 3.5 mph - N/A Fog Fog
6:30 PM 48.2 °F 48.2 °F 100% 30.06 in 0.1 mi Variable 1.2 mph - N/A Fog Fog
7:00 PM 50.0 °F 50.0 °F 100% 30.06 in 0.1 mi Calm Calm - N/A Fog Fog
7:30 PM 48.2 °F 48.2 °F 100% 30.09 in 0.0 mi Variable 2.3 mph - N/A Fog Fog
8:00 PM 48.2 °F 48.2 °F 100% 30.09 in - Calm Calm - N/A Fog Fog
8:30 PM 48 °F 48 °F 100%  in 0 mi Calm Calm - - Fog Heavy Fog
8:30 PM 48.2 °F 48.2 °F 100% 30.09 in - Calm Calm - N/A Fog Fog
9:00 PM 48.2 °F 48.2 °F 100% 30.09 in - Calm Calm - N/A Fog Fog
9:30 PM 48.2 °F 48.2 °F 100% 30.12 in - Variable 3.5 mph - N/A Fog Fog
10:00 PM 48.2 °F 48.2 °F 100% 30.12 in - Calm Calm - N/A Fog Fog
10:30 PM 48.2 °F 48.2 °F 100% 30.12 in - Variable 2.3 mph - N/A Fog Fog
11:00 PM 50.0 °F 50.0 °F 100% 30.12 in - Variable 1.2 mph - N/A Fog Fog
11:30 PM 49 °F 49 °F 100% 30.14 in 0 mi East 3.5 mph - - Fog Heavy Fog
11:30 PM 50.0 °F 50.0 °F 100% 30.12 in - East 3.5 mph - N/A Fog Fog